Terminal Aerodrome Forecast
Issued by NWS Milwaukee/Sullivan, WI

Home | Current Version | Previous Version | Text Only | Print | Product List | Glossary On
Versions: 1 2 3 4 5 6 7 8 9 10 11 12 13 14 15 16 17 18 19 20 21 22 23 24 25 26 27 28 29 30 31 32 33 34 35 36 37 38 39 40 41 42 43 44 45 46 47 48 49 50
000
FTUS43 KMKX 121505 AAB
TAFMSN
TAF AMD
KMSN 121505Z 1215/1312 31010G17KT P6SM BKN030
     FM121700 31013G21KT P6SM SCT040
     FM121900 32015G25KT P6SM SCT070
     FM130500 33009KT P6SM FEW250=

USA.gov is the U.S. government's official web portal to all federal, state and local government web resources and services.